Zurück zum Katalog

STARLINK-34576

AktivKommunikationVLEO
NORAD 64701·PAYLOAD·🇺🇸 United States

Gestartet Jun 28, 2025 von Vandenberg Space Force Base

Loading…

Nächste Überflüge (nächste 24 Stunden)

TLE

AktuellSource: CelesTrak SupGP

Epoche: Sep 14, 2026, 22:55 UTC

1 64701C 25142F   26257.95534722 -.00042926  00000+0 -14927-2 0  2577
2 64701  70.0017 195.4464 0003202 266.5262 159.1202 15.29612150    17

Verfolge STARLINK-34576 in Echtzeit mit AllMySat

Download on the App Store